Weather Roundup
Issued by NWS Corpus Christi, TX

Home | Current Version | Previous Version | Text Only | Print | Product List | Glossary On
Versions: 1 2 3 4 5 6 7 8 9 10 11 12 13 14 15 16 17 18 19 20 21 22 23 24 25 26 27 28 29 30 31 32 33 34 35 36 37 38 39 40 41 42 43 44 45 46 47 48 49 50
000
ASUS44 KCRP 200710
HRRCRP

SOUTH TEXAS REGIONAL WEATHER ROUNDUP
NATIONAL WEATHER SERVICE CORPUS CHRISTI TX
200 AM CDT WED AUG 20 2014


TXZ229>244-200800-
...CORPUS CHRISTI AREA OBSERVATIONS...

CITY           SKY/WX    TMP DP  RH WIND       PRES   REMARKS
CORPUS CHRISTI PTCLDY    82  77  84 SE9       29.90S HX  90
NAS CORPUS CHR PTCLDY    83  79  88 SE12      29.90S HX  94
ROCKPORT       CLEAR     84  78  82 SE14      29.90F HX  95
KINGSVILLE NAS CLEAR     82  78  88 SE9       29.90S HX  91
ALICE          CLEAR     79  76  90 SE10      29.90S
FALFURRIAS     CLEAR     86  70  58 SE7       29.90R HX  90
$$

...VICTORIA AREA OBSERVATIONS...

CITY           SKY/WX    TMP DP  RH WIND       PRES   REMARKS
VICTORIA       CLEAR     81  77  88 SE10      29.92F
BEEVILLE       FAIR      80  77  90 SE6       29.91S
PLEASANTON     MOCLDY    80  72  78 SE9       29.91S
SAN ANTONIO    MOCLDY    80  72  76 SE15G22   29.93S
$$

...LAREDO AREA OBSERVATIONS...

CITY           SKY/WX    TMP DP  RH WIND       PRES   REMARKS
LAREDO         CLEAR     83  69  62 SE15      29.89S
COTULLA        CLEAR     81  72  74 SE17G23   29.88R
DEL RIO        PTCLDY    85  65  51 E8        29.84R
MCALLEN        CLEAR     82  75  79 SE13      29.89S
HEBBRONVILLE   PTCLDY    80  72  76 SE9       29.91F
$$

...OTHER TEXAS OBSERVATIONS...

CITY           SKY/WX    TMP DP  RH WIND       PRES   REMARKS
BROWNSVILLE    PTCLDY    79  76  90 SE5       29.90F
HOUSTON        MOCLDY    76  75  97 CALM      29.94S
COL. STATION   CLOUDY    78  74  87 SE9       29.93S
AUSTIN         MOCLDY    80  73  79 S10       29.93S
WACO           MOCLDY    80  71  74 S14       29.90S
FORT WORTH     CLOUDY    80  70  71 S12       29.89S
WICHITA FALLS  PTCLDY    81  63  54 S9        29.85F
LUBBOCK        PTCLDY    77  63  61 S17       29.93S
EL PASO        PTCLDY    72  59  63 SW17      29.95F
$$

...MARINE OBSERVATIONS...

STATION/POSITION TIME  SKY/WX   TEMP    WIND        PRES    VSBY  WAVE   SWELL
                                AIR SEA DIR/SP/G                  HT/PER HT/PER
                 (UTC)          (F)     (DEG/KT/KT) (MB)    (MI)  (FT/S) (FT/S)
PORT ARANSAS     0600            82 85  120/  9/ 10 1013.4F
BUOY 90 E PORT A 0700            85 85  140/ 14/ 16 1013.8F         3/ 6   2/ 8
BUOY 45 SE BAFFI 0700            85 86  140/ 17/ 19 1012.1F         3/ 5
BUOY 200 E PT IS 0700            84 86  130/ 10/ 12 1014.0R         3/ 5   2/ 5
BUOY 15 E GALVES NOT AVBL
$$


USA.gov is the U.S. government's official web portal to all federal, state and local government web resources and services.